FW4443 Weather Reports


Display with metric or nautical units.
time (UTC)temp
F
wind
direction
speed
MPH
gust
MPH
rain 1hr
in
rain 24hr
in
rain mn
in
humidity
%
barometer
mb
20260504234507 76 0 9.0 19.0 0.00 0.00 0.00 18 1007.4
20260504234147 76 0 9.0 19.0 0.00 0.00 0.00 18 1007.4
20260504233827 76 0 9.0 19.0 0.00 0.00 0.00 17 1007.4
20260504233501 76 0 10.0 19.0 0.00 0.00 0.00 16 1007.5
20260504233147 76 0 10.0 22.0 0.00 0.00 0.00 15 1007.6
20260504232824 76 0 10.0 22.0 0.00 0.00 0.00 13 1007.5
20260504232508 76 0 11.0 22.0 0.00 0.00 0.00 13 1007.6
20260504232147 76 0 10.0 24.0 0.00 0.00 0.00 14 1007.6
20260504231228 76 0 12.0 26.0 0.00 0.00 0.00 13 1007.6
20260504230907 76 0 13.0 26.0 0.00 0.00 0.00 13 1007.5
20260504230542 76 0 13.0 26.0 0.00 0.00 0.00 13 1007.6
20260504230220 76 0 12.0 27.0 0.00 0.00 0.00 13 1007.6
20260504225905 76 0 12.0 27.0 0.00 0.00 0.00 13 1007.7
20260504225240 76 0 13.0 27.0 0.00 0.00 0.00 13 1007.7
20260504224923 76 0 13.0 27.0 0.00 0.00 0.00 13 1007.8
20260504224608 77 0 13.0 27.0 0.00 0.00 0.00 13 1007.8
20260504224247 77 0 11.0 26.0 0.00 0.00 0.00 13 1007.8
20260504223925 77 0 11.0 26.0 0.00 0.00 0.00 12 1007.7
20260504223608 77 0 11.0 26.0 0.00 0.00 0.00 13 1007.8
20260504222944 77 0 12.0 26.0 0.00 0.00 0.00 14 1007.8
20260504222622 77 0 13.0 26.0 0.00 0.00 0.00 13 1007.8
20260504222300 77 0 12.0 25.0 0.00 0.00 0.00 13 1007.8
20260504221937 77 0 13.0 25.0 0.00 0.00 0.00 12 1007.9
20260504221617 77 0 13.0 25.0 0.00 0.00 0.00 13 1007.8
20260504221252 77 0 14.0 24.0 0.00 0.00 0.00 12 1008.0
20260504220633 78 0 13.0 24.0 0.00 0.00 0.00 12 1008.0
20260504220317 78 0 12.0 29.0 0.00 0.00 0.00 11 1008.2
20260504215700 77 0 11.0 29.0 0.00 0.00 0.00 13 1008.2
20260504215337 77 0 12.0 29.0 0.00 0.00 0.00 12 1008.2
20260504215015 78 0 13.0 29.0 0.00 0.00 0.00 12 1008.2
20260504214357 78 0 12.0 27.0 0.00 0.00 0.00 13 1008.2
20260504213742 78 0 12.0 28.0 0.00 0.00 0.00 13 1008.3
20260504213425 78 0 13.0 28.0 0.00 0.00 0.00 13 1008.3
20260504213106 78 0 14.0 28.0 0.00 0.00 0.00 14 1008.2
20260504212744 78 0 14.0 28.0 0.00 0.00 0.00 15 1008.2
20260504212426 78 0 13.0 28.0 0.00 0.00 0.00 14 1008.3
20260504212102 78 0 12.0 28.0 0.00 0.00 0.00 13 1008.2
20260504211743 78 0 12.0 26.0 0.00 0.00 0.00 14 1008.4
20260504211428 78 0 11.0 26.0 0.00 0.00 0.00 15 1008.3
20260504210806 78 0 11.0 25.0 0.00 0.00 0.00 17 1008.3
20260504210149 78 0 13.0 25.0 0.00 0.00 0.00 16 1008.4
20260504205524 78 0 13.0 23.0 0.00 0.00 0.00 15 1008.5
20260504205201 78 0 13.0 23.0 0.00 0.00 0.00 14 1008.5
20260504204537 78 0 12.0 23.0 0.00 0.00 0.00 14 1008.4
20260504204215 78 0 12.0 23.0 0.00 0.00 0.00 13 1008.4
20260504203849 77 0 12.0 22.0 0.00 0.00 0.00 14 1008.4
20260504203532 77 0 12.0 22.0 0.00 0.00 0.00 12 1008.4
20260504203212 77 0 11.0 22.0 0.00 0.00 0.00 14 1008.3
20260504202851 78 0 12.0 23.0 0.00 0.00 0.00 13 1008.4
20260504202527 78 0 12.0 23.0 0.00 0.00 0.00 13 1008.4
20260504201903 77 0 12.0 23.0 0.00 0.00 0.00 16 1008.4
20260504201540 77 0 12.0 23.0 0.00 0.00 0.00 15 1008.5
20260504201217 77 0 12.0 23.0 0.00 0.00 0.00 14 1008.5
20260504200852 77 0 12.0 22.0 0.00 0.00 0.00 17 1008.3
20260504200529 77 0 11.0 22.0 0.00 0.00 0.00 16 1008.3
20260504200207 77 0 11.0 24.0 0.00 0.00 0.00 19 1008.4
20260504195852 77 0 10.0 24.0 0.00 0.00 0.00 19 1008.5
20260504195530 77 0 12.0 24.0 0.00 0.00 0.00 18 1008.5
20260504195205 77 0 13.0 24.0 0.00 0.00 0.00 18 1008.5
20260504194549 77 0 12.0 24.0 0.00 0.00 0.00 20 1008.6
20260504193930 77 0 14.0 24.0 0.00 0.00 0.00 19 1008.6
20260504193615 77 0 13.0 24.0 0.00 0.00 0.00 20 1008.6
20260504193250 77 0 12.0 24.0 0.00 0.00 0.00 19 1008.6
20260504192925 76 0 11.0 24.0 0.00 0.00 0.00 20 1008.6
20260504192611 76 0 10.0 24.0 0.00 0.00 0.00 20 1008.8
20260504192247 76 0 11.0 24.0 0.00 0.00 0.00 21 1008.8
20260504191921 75 0 12.0 24.0 0.00 0.00 0.00 21 1008.7
20260504191558 75 0 12.0 24.0 0.00 0.00 0.00 21 1008.8
20260504190934 76 0 11.0 20.0 0.00 0.00 0.00 23 1008.9
20260504190312 75 0 11.0 19.0 0.00 0.00 0.00 23 1009.1
20260504185957 75 0 11.0 18.0 0.00 0.00 0.00 23 1009.1
20260504185636 75 0 10.0 18.0 0.00 0.00 0.00 22 1009.3
20260504185312 75 0 10.0 22.0 0.00 0.00 0.00 24 1009.2
20260504184948 75 0 11.0 22.0 0.00 0.00 0.00 24 1009.4
20260504184629 75 0 13.0 22.0 0.00 0.00 0.00 24 1009.4
20260504184310 75 0 14.0 22.0 0.00 0.00 0.00 26 1009.4
20260504183946 75 0 13.0 22.0 0.00 0.00 0.00 24 1009.3
20260504183623 75 0 13.0 22.0 0.00 0.00 0.00 25 1009.3
20260504183301 74 0 12.0 20.0 0.00 0.00 0.00 26 1009.4
20260504182943 74 0 13.0 20.0 0.00 0.00 0.00 27 1009.4
20260504182625 73 0 13.0 26.0 0.00 0.00 0.00 27 1009.5
20260504182304 73 0 13.0 26.0 0.00 0.00 0.00 25 1009.5
20260504181943 73 0 13.0 26.0 0.00 0.00 0.00 26 1009.4
20260504181626 73 0 13.0 26.0 0.00 0.00 0.00 27 1009.4
20260504181003 73 0 13.0 26.0 0.00 0.00 0.00 26 1009.5
20260504180646 73 0 12.0 22.0 0.00 0.00 0.00 29 1009.5
20260504180327 72 0 12.0 22.0 0.00 0.00 0.00 28 1009.5
20260504180005 73 0 12.0 22.0 0.00 0.00 0.00 28 1009.4
20260504175646 73 0 12.0 22.0 0.00 0.00 0.00 29 1009.5
20260504175327 72 0 12.0 22.0 0.00 0.00 0.00 28 1009.4
20260504175012 73 0 11.0 19.0 0.00 0.00 0.00 29 1009.6
20260504174650 73 0 11.0 17.0 0.00 0.00 0.00 29 1009.5
20260504174328 72 0 11.0 22.0 0.00 0.00 0.00 30 1009.6
20260504173704 71 0 12.0 22.0 0.00 0.00 0.00 32 1009.5
20260504173042 71 0 11.0 22.0 0.00 0.00 0.00 32 1009.4
20260504172720 71 0 11.0 22.0 0.00 0.00 0.00 32 1009.3
20260504172403 71 0 11.0 21.0 0.00 0.00 0.00 34 1009.3
20260504172044 70 0 12.0 21.0 0.00 0.00 0.00 34 1009.3
20260504171421 70 0 12.0 21.0 0.00 0.00 0.00 35 1009.3
20260504171056 70 0 12.0 21.0 0.00 0.00 0.00 34 1009.3
20260504170730 70 0 11.0 20.0 0.00 0.00 0.00 34 1009.2
20260504170408 70 0 11.0 20.0 0.00 0.00 0.00 34 1009.2
20260504160441 67 0 7.0 17.0 0.00 0.00 0.00 39 1009.2
20260504160122 67 0 7.0 16.0 0.00 0.00 0.00 38 1009.2
20260504150835 64 0 5.0 11.0 0.00 0.00 0.00 41 1009.1
20260504150520 64 0 4.0 10.0 0.00 0.00 0.00 41 1009.0
20260504150200 64 0 5.0 10.0 0.00 0.00 0.00 41 1008.9
20260504141300 63 0 4.0 9.0 0.00 0.00 0.00 42 1008.2
20260504140945 63 0 4.0 9.0 0.00 0.00 0.00 42 1008.3
20260504140328 63 0 2.0 9.0 0.00 0.00 0.00 42 1008.3
20260504130737 63 0 4.0 11.0 0.00 0.00 0.00 40 1007.5
20260504130413 63 0 5.0 16.0 0.00 0.00 0.00 40 1007.5
20260504110551 66 0 6.0 11.0 0.00 0.00 0.00 37 1007.7
20260504110228 66 0 5.0 11.0 0.00 0.00 0.00 37 1007.9
20260504100607 69 0 7.0 14.0 0.00 0.00 0.00 32 1007.6
20260504100253 69 0 7.0 15.0 0.00 0.00 0.00 31 1007.7
20260504081756 72 0 2.0 4.0 0.00 0.00 0.00 22 1007.4
20260504081437 72 0 2.0 4.0 0.00 0.00 0.00 22 1007.3
20260504081119 72 0 2.0 7.0 0.00 0.00 0.00 22 1007.4
20260504080759 72 0 2.0 7.0 0.00 0.00 0.00 21 1007.4
20260504080133 72 0 3.0 7.0 0.00 0.00 0.00 21 1007.3
20260504070202 75 0 0.0 3.0 0.00 0.00 0.00 20 1006.6
20260504060246 76 0 5.0 11.0 0.00 0.00 0.00 18 1006.1
20260504050724 77 0 8.0 16.0 0.00 0.00 0.00 16 1006.5
20260504050404 78 0 8.0 14.0 0.00 0.00 0.00 16 1006.5
20260504045732 78 0 7.0 14.0 0.00 0.00 0.00 15 1006.4
20260504045415 78 0 7.0 14.0 0.00 0.00 0.00 15 1006.3
20260504045057 78 0 7.0 13.0 0.00 0.00 0.00 15 1006.4
20260504044741 78 0 6.0 13.0 0.00 0.00 0.00 15 1006.4
20260504044422 78 0 6.0 13.0 0.00 0.00 0.00 16 1006.6
20260504043800 78 0 7.0 14.0 0.00 0.00 0.00 16 1006.5
20260504043136 78 0 8.0 14.0 0.00 0.00 0.00 16 1006.6
20260504042818 78 0 7.0 14.0 0.00 0.00 0.00 16 1006.5
20260504042450 78 0 6.0 14.0 0.00 0.00 0.00 16 1006.4
20260504042128 79 0 6.0 12.0 0.00 0.00 0.00 16 1006.3
20260504041812 79 0 6.0 13.0 0.00 0.00 0.00 16 1006.4
20260504041152 79 0 6.0 13.0 0.00 0.00 0.00 16 1006.3
20260504040827 79 0 7.0 15.0 0.00 0.00 0.00 16 1006.2
20260504040503 79 0 7.0 15.0 0.00 0.00 0.00 16 1006.2
20260504040145 79 0 6.0 15.0 0.00 0.00 0.00 16 1006.1
20260504035824 79 0 6.0 16.0 0.00 0.00 0.00 16 1006.0
20260504035459 79 0 7.0 16.0 0.00 0.00 0.00 16 1006.1
20260504035143 79 0 7.0 16.0 0.00 0.00 0.00 16 1006.1
20260504034817 80 0 7.0 17.0 0.00 0.00 0.00 16 1006.1
20260504034454 80 0 8.0 17.0 0.00 0.00 0.00 16 1006.0
20260504034130 80 0 8.0 17.0 0.00 0.00 0.00 16 1005.9
20260504033811 80 0 8.0 18.0 0.00 0.00 0.00 16 1005.9
20260504033455 80 0 7.0 18.0 0.00 0.00 0.00 17 1005.8
20260504033136 80 235 6.0 18.0 0.00 0.00 0.00 17 1005.7
20260504032513 81 246 8.0 18.0 0.00 0.00 0.00 17 1005.4
20260504032158 81 284 9.0 18.0 0.00 0.00 0.00 17 1005.4
20260504031835 81 258 9.0 16.0 0.00 0.00 0.00 17 1005.4
20260504031518 81 303 8.0 16.0 0.00 0.00 0.00 17 1005.4
20260504031156 81 255 8.0 17.0 0.00 0.00 0.00 16 1005.3
20260504030833 82 253 7.0 17.0 0.00 0.00 0.00 16 1005.2
20260504030512 82 290 8.0 17.0 0.00 0.00 0.00 16 1005.2
20260504030151 82 233 8.0 17.0 0.00 0.00 0.00 16 1005.2
20260504025828 82 244 8.0 17.0 0.00 0.00 0.00 16 1005.1
20260504025503 83 267 7.0 17.0 0.00 0.00 0.00 16 1005.0
20260504025138 83 248 8.0 23.0 0.00 0.00 0.00 16 1005.0
20260504024515 83 200 10.0 23.0 0.00 0.00 0.00 15 1005.0
20260504024159 83 213 10.0 23.0 0.00 0.00 0.00 14 1004.9
20260504023834 83 229 9.0 23.0 0.00 0.00 0.00 13 1004.9
20260504023511 83 190 8.0 23.0 0.00 0.00 0.00 13 1004.9
20260504023154 83 227 8.0 20.0 0.00 0.00 0.00 13 1004.8
20260504022838 83 222 8.0 20.0 0.00 0.00 0.00 13 1004.7
20260504022515 83 247 6.0 20.0 0.00 0.00 0.00 13 1004.7
20260504022157 83 248 4.0 12.0 0.00 0.00 0.00 14 1004.8
20260504021834 83 246 4.0 12.0 0.00 0.00 0.00 13 1004.7
20260504021214 83 198 6.0 14.0 0.00 0.00 0.00 13 1004.8
20260504020246 84 200 5.0 14.0 0.00 0.00 0.00 13 1004.8
20260504015925 84 215 5.0 14.0 0.00 0.00 0.00 13 1004.9
20260504015304 84 194 5.0 20.0 0.00 0.00 0.00 13 1004.8
20260504014947 84 202 6.0 20.0 0.00 0.00 0.00 13 1004.8
20260504014627 84 248 7.0 20.0 0.00 0.00 0.00 13 1004.7
20260504014301 84 238 9.0 25.0 0.00 0.00 0.00 13 1004.9
20260504013942 84 248 10.0 25.0 0.00 0.00 0.00 13 1005.0
20260504013326 85 180 9.0 25.0 0.00 0.00 0.00 13 1005.0
20260504012710 85 215 11.0 25.0 0.00 0.00 0.00 13 1004.8
20260504012352 85 204 11.0 25.0 0.00 0.00 0.00 13 1005.0
20260504012035 85 131 11.0 24.0 0.00 0.00 0.00 13 1005.0
20260504011713 85 188 10.0 24.0 0.00 0.00 0.00 13 1005.0
20260504011353 85 145 10.0 21.0 0.00 0.00 0.00 13 1005.0
20260504010727 85 213 8.0 21.0 0.00 0.00 0.00 12 1005.0
20260504010407 85 157 7.0 19.0 0.00 0.00 0.00 12 1005.0
20260504010043 86 161 7.0 19.0 0.00 0.00 0.00 12 1004.9
20260504005725 86 200 7.0 19.0 0.00 0.00 0.00 12 1005.0
20260504005406 86 219 8.0 19.0 0.00 0.00 0.00 11 1005.0
20260504005044 86 221 8.0 19.0 0.00 0.00 0.00 11 1005.1
20260504004724 86 223 9.0 19.0 0.00 0.00 0.00 11 1005.0
20260504004402 86 183 9.0 19.0 0.00 0.00 0.00 11 1005.0
20260504003443 86 208 9.0 21.0 0.00 0.00 0.00 11 1004.9
20260504003128 86 165 9.0 21.0 0.00 0.00 0.00 11 1004.9
20260504002807 86 178 8.0 21.0 0.00 0.00 0.00 11 1005.0
20260504002144 87 204 8.0 21.0 0.00 0.00 0.00 11 1004.9
20260504001824 87 259 9.0 20.0 0.00 0.00 0.00 11 1005.0
20260504001502 87 215 9.0 20.0 0.00 0.00 0.00 11 1004.8
20260504001141 87 252 10.0 20.0 0.00 0.00 0.00 11 1004.9
20260504000821 88 155 9.0 20.0 0.00 0.00 0.00 11 1004.9
20260504000503 88 184 9.0 20.0 0.00 0.00 0.00 11 1005.0
20260504000144 88 168 8.0 20.0 0.00 0.00 0.00 12 1005.0
20260503235827 88 207 9.0 20.0 0.00 0.00 0.00 11 1005.1
20260503235210 87 192 7.0 22.0 0.00 0.00 0.00 12 1005.0
20260503234845 87 155 7.0 22.0 0.00 0.00 0.00 12 1005.0